Tracking 20942 objects as of 11-Jul-2020
HD Live streaming from Space Station
objects crossing your sky now

SL-12 DEB

Track SL-12 DEB now!
10-day predictions


NORAD ID: 42978
Int'l Code: 2010-041T
Perigee: 467.0 km
Apogee: 17,747.1 km
Inclination: 65.3 °
Period: 319.4 minutes
Semi major axis: 15478 km
RCS: Unknown
Launch date: September 2, 2010
Source: Commonwealth of Independent States (former USSR) (CIS)
Launch site: TYURATAM MISSILE AND SPACE COMPLEX (TTMTR)

Note: This is SATELLITE DEBRIS
aabbcc
Your satellite tracking list
Your tracking list is empty




NASA's NSSDC Master Catalog

Two Line Element Set (TLE):
1 42978U 10041T   20193.14667463  .00000597  00000-0  89050-3 0  9994
2 42978  65.3433 142.4654 5582113  16.0441 356.1350  4.50844780 46882
Source of the keplerian elements: AFSPC